7 * 24
多渠道服务支持
IRIDIUM 173 是 IRIDIUM 卫星通信系统的一部分,属于第二代 IRIDIUM NEXT 卫星星座。该卫星由 SpaceX 于 2017 年发射,提供全球范围的语音和数据通信服务。它运行在低地球轨道,支持多种应用,包括航空、航海和应急通信。IRIDIUM 173 采用先进设计,具备更强的信号覆盖和抗干扰能力,为用户在偏远地区提供可靠连接。
美国
(US)
| 数据来源 | 国际轨道数据 |
| 星历时间: | 2025-10-28T19:39:03+0800 20小时前 查看轨道信息 |
| 半长轴: | 7155.808km |
| 偏心率: | 0.0002163 |
| 轨道倾角: | 86.393° |
| 近地点辐角 | 87.580° |
| 升交点赤经 | 90.432° |
| 平近点角 | 272.564° |
| 近地点: | 776.125km |
| 远地点: | 779.221km |
| 周期: | 100.403分钟 |
| 每日圈数: | 14.342168 |